Weather History for PHBK - January, 2013

Change the Weather History Date:

Sunday, January 6, 2013

  Actual Average (PHLI) Record (PHLI)
Temperature  
Mean Temperature 76 °F 72 °F  
Max Temperature 84 °F 78 °F 85 °F (1981)
Min Temperature 69 °F 66 °F 56 °F (1971)
Degree Days  
Heating Degree Days 0 0  
Month to date heating degree days 0  
Since 1 July heating degree days 0  
Cooling Degree Days 12 7  
Month to date cooling degree days 42  
Year to date cooling degree days 42  
Growing Degree Days 26 (Base 50)    
Moisture  
Dew Point 66 °F    
Average Humidity 71    
Maximum Humidity 87    
Minimum Humidity 47    
Precipitation  
Precipitation 0.00 in 0.13 in 6.87 in (1962)
Month to date precipitation 0.79  
Year to date precipitation 0.79  
Snow  
Snow 0.00 in - - ()
Month to date snowfall  
Since 1 July snowfall  
Snow Depth -    
Sea Level Pressure  
Sea Level Pressure 30.08 in    
Wind  
Wind Speed 6 mph (ESE)    
Max Wind Speed 15 mph    
Max Gust Speed 24 mph    
Visibility 10 miles    
Events      
T = Trace of Precipitation, MM = Missing Value Source: NWS Daily Summary

Daily Weather History Graph

Daily Weather History Graph

Search for Another Location

Airport or City:

Trip Planner

Search our weather history database for the weather conditions in past years. The results will help you decide how hot, cold, wet, or windy it might be!

Date:

Astronomy

Jan. 06, 2013 Rise Set
Actual Time 7:19 AM HST 6:11 PM HST
Civil Twilight 6:55 AM HST 6:35 PM HST
Nautical Twilight 6:27 AM HST 7:02 PM HST
Astronomical Twilight 6:00 AM HST 7:30 PM HST
Moon 2:01 AM HST (1/6) 1:35 PM HST (1/6)
Length of Visible Light 11h 39m
Length of Day
10h 51m
Waning Crescent, 31% of the Moon is Illuminated
Jan 6
Waning Crescent
Jan 11
New
Jan 18
First Quarter
Jan 26
Full
Feb 3
Last Quarter

Hourly Weather History & Observations

Time (HST) Temp. Heat Index Dew Point Humidity Pressure Visibility Wind Dir Wind Speed Gust Speed Precip Events Conditions
12:56 AM 73.9 °F - 66.9 °F 79% 30.14 in 10.0 mi Calm Calm - N/A   Clear
1:56 AM 69.1 °F - 64.9 °F 87% 30.13 in 10.0 mi Calm Calm - N/A   Clear
2:56 AM 73.0 °F - 66.0 °F 79% 30.11 in 10.0 mi ESE 5.8 mph - N/A   Clear
3:56 AM 70.0 °F - 64.0 °F 81% 30.10 in 10.0 mi ESE 3.5 mph - N/A   Partly Cloudy
4:56 AM 72.0 °F - 64.9 °F 78% 30.10 in 10.0 mi SE 9.2 mph - N/A   Partly Cloudy
5:56 AM 73.0 °F - 68.0 °F 84% 30.09 in 10.0 mi SE 8.1 mph - N/A   Clear
6:56 AM 73.9 °F - 69.1 °F 85% 30.10 in 10.0 mi SE 9.2 mph - N/A   Clear
7:56 AM 75.0 °F - 66.9 °F 76% 30.12 in 10.0 mi East 10.4 mph - N/A   Clear
8:56 AM 78.1 °F - 64.9 °F 64% 30.13 in 10.0 mi East 8.1 mph - N/A   Clear
9:56 AM 82.0 °F 82.7 °F 61.0 °F 49% 30.14 in 10.0 mi East 10.4 mph 19.6 mph N/A   Clear
10:56 AM 81.0 °F 82.5 °F 64.0 °F 56% 30.12 in 10.0 mi NNW 12.7 mph 16.1 mph N/A   Partly Cloudy
11:56 AM 84.0 °F 84.5 °F 62.1 °F 47% 30.10 in 10.0 mi ESE 13.8 mph 21.9 mph N/A   Scattered Clouds
12:11 PM 84.2 °F 85.0 °F 62.6 °F 48% 30.08 in 10.0 mi ESE 15.0 mph 24.2 mph N/A   Scattered Clouds
12:56 PM 82.0 °F 84.1 °F 66.0 °F 58% 30.06 in 10.0 mi Variable 6.9 mph - N/A   Scattered Clouds
1:56 PM 81.0 °F 84.4 °F 70.0 °F 69% 30.05 in 10.0 mi NW 10.4 mph - N/A   Mostly Cloudy
2:56 PM 80.1 °F 82.7 °F 68.0 °F 67% 30.04 in 10.0 mi Variable 3.5 mph - N/A   Partly Cloudy
3:56 PM 81.0 °F 84.4 °F 70.0 °F 69% 30.03 in 10.0 mi Variable 4.6 mph - N/A   Scattered Clouds
4:56 PM 81.0 °F 82.2 °F 63.0 °F 54% 30.02 in 10.0 mi SSE 11.5 mph 19.6 mph N/A   Clear
5:56 PM 78.1 °F - 64.9 °F 64% 30.03 in 10.0 mi SSE 9.2 mph - N/A   Clear
6:56 PM 77.0 °F - 70.0 °F 79% 30.04 in 10.0 mi SE 8.1 mph - N/A   Clear
7:56 PM 75.9 °F - 68.0 °F 76% 30.06 in 10.0 mi ESE 5.8 mph - N/A   Clear
8:56 PM 77.0 °F - 71.1 °F 82% 30.08 in 10.0 mi NW 8.1 mph - N/A   Mostly Cloudy
9:56 PM 75.0 °F - 70.0 °F 84% 30.09 in 10.0 mi SSE 3.5 mph - N/A   Mostly Cloudy
10:56 PM 72.0 °F - 68.0 °F 87% 30.08 in 10.0 mi SSE 5.8 mph - N/A   Partly Cloudy
11:56 PM 73.0 °F - 66.9 °F 81% 30.07 in 10.0 mi SE 4.6 mph - N/A   Mostly Cloudy